SCP
0 0 -0 -0 0 0 0 2 7 9 10 8 6 5 3 3 2 2 1 2 1 1 1 1 1 0 0 0 0 0 0 0 0 0 0 0 0 0 0 0 0 0 0
0 0 -0 -0 0 0 0 2 6 9 10 9 7 5 4 3 2 2 2 2 2 2 1 1 1 0 0 0 0 0 0 0 0 0 0 0 0 0 0 0 0 0 0
0 0 0 -0 0 0 0 1 2 4 3 3 3 3 3 2 3 2 2 2 2 2 2 1 1 0 0 0 0 0 0 0 0 0 0 0 0 0 0 0 0 0 0
0 0 0 0 0 0 0 0 1 1 1 0 0 2 3 3 2 3 2 1 1 1 1 1 1 0 0 0 0 0 0 0 0 0 0 0 0 0 0 0 0 0 0
0 0 0 0 0 0 0 0 0 1 2 2 0 0 0 0 0 2 2 2 1 1 1 1 0 0 0 0 0 0 0 0 0 0 0 0 0 0 0 0 0 0 0
0 0 0 0 0 0 0 0 1 1 1 0 0 0 0 1 1 1 2 2 1 0 1 0 1 0 0 0 0 0 0 0 0 0 0 0 0 0 0 0 0 0 0
-0 0 0 1 0 0 0 0 0 0 0 0 0 0 0 0 0 0 0 1 0 0 0 1 0 1 0 0 0 0 0 0 0 0 0 0 0 0 0 0 0 0 0
0 0 0 0 0 0 0 0 0 0 0 0 0 0 0 0 0 0 0 0 0 0 0 0 1 1 0 0 0 0 0 0 0 0 0 0 0 0 0 0 0 0 0
0 0 0 0 0 0 0 0 0 0 0 0 0 0 0 0 0 0 0 0 0 0 0 1 0 0 0 0 0 0 0 0 0 0 0 0 0 0 0 0 0 0 0
0 0 0 0 0 0 0 0 0 0 0 0 0 0 0 0 0 0 0 0 0 0 0 0 0 0 0 0 0 0 0 0 0 0 0 0 0 0 0 0 0 0 0
0 0 0 0 0 0 0 0 0 0 0 0 0 0 0 0 0 0 0 0 0 0 0 0 0 0 0 0 0 0 0 0 0 0 0 0 0 0 0 0 0 0 0
0 0 0 0 0 0 0 0 0 0 0 0 0 0 0 0 0 0 0 0 0 0 0 0 0 0 0 0 0 0 0 0 0 0 0 0 0 0 0 0 0 0 0
0 0 0 0 0 0 0 0 0 0 0 0 0 0 0 0 0 0 0 0 0 0 0 0 0 0 0 0 0 0 0 0 0 0 0 0 0 0 0 0 0 0 0
0 0 0 0 0 0 0 0 0 0 0 0 0 0 0 0 0 0 0 0 0 0 0 0 0 0 0 0 0 0 0 0 0 0 0 0 0 0 0 0 0 0 0
-0 0 0 0 0 0 0 0 0 -0 -0 -0 -0 -0 0 0 0 0 0 0 0 0 0 0 0 0 0 0 0 0 0 0 0 0 0 0 0 0 0 0 0 0 0
0 0 0 -0 -0 -0 -0 -0 -0 -0 -0 -0 -0 -0 -0 0 0 0 0 0 0 0 0 0 0 0 0 0 0 0 0 0 0 0 0 0 0 0 0 0 0 0 0
0 -0 -0 -0 -0 -0 -0 -0 -0 -0 -0 -0 -0 -0 -0 0 0 0 0 0 0 0 0 0 0 0 0 0 0 0 0 0 0 0 0 0 0 0 0 0 0 0 0
-0 -0 -0 -0 -0 -0 -0 -0 -0 -0 -0 -0 -0 -0 0 0 0 0 0 0 0 0 0 0 0 0 0 0 0 0 0 0 0 0 0 0 0 0 0 0 0 0 0
-0 0 -0 -0 -0 -0 -0 -0 -0 -0 -0 -0 0 0 0 0 0 0 0 0 0 0 0 0 0 0 0 0 0 0 0 0 0 0 0 0 0 0 0 0 0 0 0
0 0 -0 0 0 0 0 0 0 0 0 0 0 0 0 0 0 0 0 0 0 0 0 0 0 0 0 0 0 0 0 0 0 0 0 0 0 0 0 0 0 0 0
-0 -0 -0 -0 -0 -0 -0 -0 -0 -0 0 0 0 0 0 0 0 0 0 0 0 0 0 -0 0 0 0 0 0 0 0 0 0 0 0 0 0 0 0 0 0 0 0
-0 -0 -0 0 0 0 -0 0 0 0 0 0 0 0 0 0 0 0 0 0 0 0 0 -0 0 0 0 0 0 0 0 0 0 0 0 0 0 0 0 0 0 0 0
0 -0 0 0 0 0 0 0 0 0 0 0 0 0 0 0 0 0 0 0 0 0 0 -0 0 0 0 0 0 0 0 0 0 0 0 0 0 0 0 0 0 0 0
0 0 0 0 0 0 0 -0 0 0 0 0 0 0 0 0 0 0 0 0 0 0 0 0 0 0 0 0 0 0 0 0 0 0 0 0 0 0 0 0 0 0 0
-0 -0 -0 0 0 0 0 0 -0 -0 -0 -0 0 0 0 0 0 0 0 0 0 0 0 0 0 0 0 0 0 0 0 0 0 0 0 0 0 0 0 0 0 0 0
-0 -0 -0 -0 0 0 0 0 0 -0 -0 -0 -0 0 0 0 0 0 0 0 0 0 0 0 0 0 0 0 0 0 0 0 0 0 0 0 0 0 0 0 0 0 0
Wind_Speed_500mb
68 55 58 66 66 69 56 80 85 77 74 82 85 72 62 56 53 49 46 44 49 50 54 55 54 52 60 64 59 61 60 58 58 55 52 46 50 54 50 50 55 48 38
59 53 57 56 56 52 67 71 86 75 74 77 79 71 68 64 57 54 50 51 48 50 54 60 63 64 69 72 69 57 58 64 62 64 56 31 47 55 53 59 64 57 48
52 54 60 47 42 36 46 68 73 68 68 62 61 60 58 56 57 60 60 59 60 59 58 64 68 69 72 76 71 58 58 67 71 71 53 22 23 65 67 68 71 66 58
57 57 51 38 28 40 40 46 55 55 49 45 47 48 48 53 58 57 53 54 65 68 68 72 68 64 66 70 68 69 65 60 71 79 78 58 41 30 25 77 74 72 67
67 59 54 45 56 53 45 41 40 41 39 41 43 37 35 37 45 49 52 51 51 62 68 72 72 73 66 66 67 74 74 72 66 76 77 83 62 48 52 44 80 76 74
60 43 49 56 60 62 52 39 35 36 35 34 37 31 34 30 31 37 47 54 52 51 59 66 67 68 73 70 69 73 78 73 70 71 72 75 88 75 64 61 74 93 84
61 58 47 64 60 56 56 47 31 38 32 22 13 13 10 19 28 34 40 39 43 49 58 60 58 58 64 67 70 72 73 72 77 73 78 74 79 82 85 71 65 69 75
52 59 57 70 67 54 46 45 50 27 14 13 7 3 11 18 25 31 33 37 41 41 41 51 60 63 62 60 64 68 70 70 72 74 78 73 83 80 87 87 74 54 66
65 12 55 74 58 48 41 35 37 36 22 18 19 12 8 11 19 23 31 32 35 43 44 40 49 56 60 66 70 74 77 81 71 78 76 73 81 83 88 90 84 81 61
70 30 25 49 54 49 44 43 43 37 25 16 14 11 12 15 17 20 29 35 36 43 49 45 48 55 57 66 74 70 75 69 70 72 70 72 75 76 87 96 99 95 86
57 41 31 46 51 49 48 42 39 27 10 9 11 13 17 16 13 14 24 34 36 36 39 51 47 52 57 54 65 73 77 76 72 66 68 74 71 77 85 91 110 107 103
40 38 54 65 55 49 44 40 32 14 18 24 22 22 18 16 21 22 21 29 33 32 37 45 42 50 54 47 56 72 75 71 67 68 67 75 76 79 70 85 106 103 101
31 49 59 55 50 46 39 33 27 26 23 23 27 29 31 32 30 27 28 28 34 37 34 37 52 38 59 57 49 51 64 68 70 71 74 71 69 77 72 78 72 99 114
53 54 53 57 47 45 47 42 38 36 32 34 35 35 35 38 38 37 35 33 33 38 43 41 43 49 53 67 60 54 59 66 71 73 76 76 74 69 68 69 77 105 97
41 45 46 50 52 54 55 52 47 47 47 44 42 42 41 40 43 42 41 39 39 39 42 42 40 47 51 71 69 63 59 59 71 69 67 67 63 61 60 61 71 84 102
46 54 51 49 53 55 54 56 54 55 54 48 44 41 41 44 43 43 44 43 42 41 40 42 38 48 59 62 75 69 61 52 58 64 60 57 56 54 52 54 67 90 96
36 38 39 42 51 56 59 60 58 54 52 52 52 48 45 43 44 43 44 45 44 44 43 41 49 49 57 63 68 80 65 55 56 58 58 52 46 49 48 48 46 65 103
41 42 47 48 53 56 57 56 57 57 55 53 54 52 50 48 48 46 46 46 43 44 46 43 39 46 54 54 57 75 66 55 53 52 55 54 51 52 47 49 52 61 80
40 49 53 51 51 56 58 58 57 56 56 56 55 53 50 49 49 50 50 49 49 42 45 45 42 43 53 56 54 68 57 57 60 54 56 53 50 50 50 52 55 68 81
47 50 50 47 48 52 55 55 56 56 55 55 57 55 52 52 50 51 53 53 46 48 44 48 38 41 45 55 52 51 61 63 61 59 63 64 59 56 56 53 61 60 74
47 47 49 50 51 51 52 53 55 61 60 55 56 57 54 52 50 52 52 52 47 46 47 47 37 37 41 47 59 75 72 68 64 66 62 61 58 54 53 53 56 62 72
55 53 56 56 54 53 55 57 60 63 63 62 59 57 57 55 53 53 51 49 46 45 46 44 34 36 40 46 67 66 71 67 61 58 55 55 50 50 50 48 49 54 74
53 54 56 58 57 56 56 62 64 67 63 60 60 59 56 55 50 51 51 49 42 42 44 42 34 33 40 46 53 58 62 62 57 54 52 51 46 42 39 37 32 48 70
56 56 56 60 62 60 57 58 63 65 63 61 59 59 57 54 48 44 46 45 42 41 43 34 33 34 38 44 51 54 56 58 59 59 55 48 38 32 33 32 32 48 62
47 51 54 57 59 61 59 58 61 66 63 59 56 55 53 49 44 37 39 45 43 40 38 31 27 34 38 42 46 46 50 56 62 59 51 46 39 40 39 42 48 57 65
50 54 57 59 59 59 59 59 59 62 58 57 56 52 47 41 36 36 32 31 38 34 24 23 18 29 33 41 45 46 48 52 57 60 59 54 52 53 57 61 63 63 66
Wind_Direction_500mb
294 297 305 297 294 289 241 231 221 223 223 227 227 227 231 227 237 240 244 241 238 239 231 233 236 232 231 234 235 233 228 224 224 223 221 228 234 225 223 221 220 223 225
288 302 309 291 295 285 243 219 226 225 224 222 221 225 226 229 234 240 245 247 244 240 232 233 238 237 233 233 231 233 225 221 224 216 221 213 220 220 226 224 219 221 220
291 302 298 283 294 243 221 207 207 208 214 213 218 221 222 226 231 235 239 242 245 243 240 241 240 243 242 239 234 228 231 221 221 223 215 181 204 222 226 226 222 222 222
303 304 285 258 183 165 158 163 170 174 177 186 200 211 222 229 234 241 247 249 248 246 243 245 242 244 247 244 237 229 232 225 226 217 221 226 218 195 203 227 221 222 224
289 284 267 227 176 166 166 167 163 167 175 187 196 211 230 236 239 241 243 246 249 248 245 243 245 244 243 244 238 233 231 228 230 231 227 224 223 227 217 206 216 221 222
295 289 243 205 174 169 170 169 167 160 166 178 185 195 217 234 240 242 243 247 248 249 242 239 243 243 242 244 243 237 235 233 229 233 235 235 227 219 218 220 222 216 220
296 271 237 184 171 162 157 158 153 140 148 157 154 161 223 259 267 258 247 247 250 250 242 240 239 240 243 247 246 242 237 236 230 239 236 239 242 235 230 225 220 206 214
322 252 230 196 167 157 140 139 146 138 146 147 170 333 274 284 291 270 258 252 248 243 246 244 245 241 247 249 246 243 242 240 235 242 238 241 245 244 237 225 214 198 205
8 271 203 177 151 135 124 120 106 119 108 84 77 86 36 343 287 274 270 266 262 250 244 249 252 247 249 246 245 242 242 238 245 239 241 242 246 249 243 229 218 211 198
1 48 110 137 132 127 120 111 102 98 89 95 88 64 30 0 340 287 264 267 267 263 255 248 244 245 245 246 241 240 238 240 245 240 240 245 245 248 250 246 228 221 215
357 23 87 107 104 104 105 100 94 96 90 43 49 35 13 345 332 293 267 265 272 273 267 252 249 250 244 241 237 236 242 245 244 239 240 244 245 251 250 250 233 227 216
347 22 72 90 94 83 83 87 92 57 27 8 5 11 2 339 320 316 312 284 270 268 274 257 259 251 234 241 238 235 238 239 234 239 239 245 247 251 253 254 236 228 205
22 41 43 69 64 59 51 51 50 30 22 355 359 358 343 331 324 322 307 307 279 271 271 273 259 264 238 234 237 239 239 238 239 241 242 247 249 251 248 248 256 230 219
17 26 22 27 29 30 25 24 19 2 353 350 349 348 337 329 322 314 312 296 298 276 260 264 264 260 253 235 234 240 242 242 244 244 246 248 249 251 255 257 242 223 208
21 21 9 12 12 6 7 10 4 356 349 344 342 342 337 324 316 310 304 303 291 296 269 259 259 260 253 240 236 237 241 248 240 241 245 246 248 252 249 252 255 214 214
14 8 8 2 2 359 357 354 352 349 344 337 337 338 330 322 315 309 305 300 297 293 285 265 254 261 253 250 241 236 239 243 241 244 249 245 246 248 245 241 244 229 213
14 10 5 352 348 346 346 344 343 340 335 335 337 336 333 327 318 317 313 310 304 293 300 275 256 257 256 250 256 238 231 232 241 246 249 247 249 249 249 241 240 233 230
359 355 349 342 339 337 337 338 339 337 335 336 335 334 330 327 320 320 320 314 306 302 299 287 279 256 255 265 255 236 229 232 239 241 244 252 247 251 250 250 242 245 251
350 346 340 341 336 337 341 343 342 339 337 336 334 331 329 329 325 321 322 322 314 308 300 295 286 260 250 259 250 242 229 236 239 238 240 246 248 245 248 248 249 244 235
347 347 349 346 344 344 343 343 341 340 338 337 334 332 333 331 325 319 321 321 318 311 311 295 289 274 250 247 230 236 233 231 236 243 246 249 249 248 253 256 249 255 246
350 349 354 356 355 350 346 346 346 345 342 339 335 335 334 330 326 317 314 314 314 312 310 300 292 278 264 247 230 224 232 234 241 245 248 247 246 248 256 258 253 253 247
354 353 353 358 357 356 352 351 352 347 343 341 340 337 333 330 325 317 311 309 309 310 307 300 293 281 278 243 231 221 225 232 239 240 240 238 248 254 258 259 252 245 237
354 354 354 355 359 358 356 352 351 348 346 344 342 339 334 331 327 321 314 311 313 306 300 302 294 280 277 253 228 236 230 224 226 226 229 237 239 242 244 239 232 231 218
356 354 353 354 354 355 356 354 352 350 350 347 344 340 337 331 328 324 320 314 317 306 296 300 297 286 276 260 240 223 220 218 216 221 224 225 218 221 223 214 210 207 198
351 354 352 352 351 352 352 353 353 354 354 349 346 343 339 335 329 326 325 322 324 314 301 289 285 283 274 259 245 230 211 208 214 214 207 198 192 184 180 177 178 181 182
347 350 353 352 353 352 351 351 354 354 351 348 347 344 338 334 334 332 331 325 328 326 304 266 280 284 275 260 246 234 221 206 197 190 191 185 180 176 172 170 170 171 171
Wind_Speed_850mb
68 55 58 66 66 69 56 80 85 77 74 82 85 72 62 56 53 49 46 44 49 50 54 55 54 52 60 64 59 61 60 58 58 55 52 46 50 54 50 50 55 48 38
59 53 57 56 56 52 67 71 86 75 74 77 79 71 68 64 57 54 50 51 48 50 54 60 63 64 69 72 69 57 58 64 62 64 56 31 47 55 53 59 64 57 48
52 54 60 47 42 36 46 68 73 68 68 62 61 60 58 56 57 60 60 59 60 59 58 64 68 69 72 76 71 58 58 67 71 71 53 22 23 65 67 68 71 66 58
57 57 51 38 28 40 40 46 55 55 49 45 47 48 48 53 58 57 53 54 65 68 68 72 68 64 66 70 68 69 65 60 71 79 78 58 41 30 25 77 74 72 67
67 59 54 45 56 53 45 41 40 41 39 41 43 37 35 37 45 49 52 51 51 62 68 72 72 73 66 66 67 74 74 72 66 76 77 83 62 48 52 44 80 76 74
60 43 49 56 60 62 52 39 35 36 35 34 37 31 34 30 31 37 47 54 52 51 59 66 67 68 73 70 69 73 78 73 70 71 72 75 88 75 64 61 74 93 84
61 58 47 64 60 56 56 47 31 38 32 22 13 13 10 19 28 34 40 39 43 49 58 60 58 58 64 67 70 72 73 72 77 73 78 74 79 82 85 71 65 69 75
52 59 57 70 67 54 46 45 50 27 14 13 7 3 11 18 25 31 33 37 41 41 41 51 60 63 62 60 64 68 70 70 72 74 78 73 83 80 87 87 74 54 66
65 12 55 74 58 48 41 35 37 36 22 18 19 12 8 11 19 23 31 32 35 43 44 40 49 56 60 66 70 74 77 81 71 78 76 73 81 83 88 90 84 81 61
70 30 25 49 54 49 44 43 43 37 25 16 14 11 12 15 17 20 29 35 36 43 49 45 48 55 57 66 74 70 75 69 70 72 70 72 75 76 87 96 99 95 86
57 41 31 46 51 49 48 42 39 27 10 9 11 13 17 16 13 14 24 34 36 36 39 51 47 52 57 54 65 73 77 76 72 66 68 74 71 77 85 91 110 107 103
40 38 54 65 55 49 44 40 32 14 18 24 22 22 18 16 21 22 21 29 33 32 37 45 42 50 54 47 56 72 75 71 67 68 67 75 76 79 70 85 106 103 101
31 49 59 55 50 46 39 33 27 26 23 23 27 29 31 32 30 27 28 28 34 37 34 37 52 38 59 57 49 51 64 68 70 71 74 71 69 77 72 78 72 99 114
53 54 53 57 47 45 47 42 38 36 32 34 35 35 35 38 38 37 35 33 33 38 43 41 43 49 53 67 60 54 59 66 71 73 76 76 74 69 68 69 77 105 97
41 45 46 50 52 54 55 52 47 47 47 44 42 42 41 40 43 42 41 39 39 39 42 42 40 47 51 71 69 63 59 59 71 69 67 67 63 61 60 61 71 84 102
46 54 51 49 53 55 54 56 54 55 54 48 44 41 41 44 43 43 44 43 42 41 40 42 38 48 59 62 75 69 61 52 58 64 60 57 56 54 52 54 67 90 96
36 38 39 42 51 56 59 60 58 54 52 52 52 48 45 43 44 43 44 45 44 44 43 41 49 49 57 63 68 80 65 55 56 58 58 52 46 49 48 48 46 65 103
41 42 47 48 53 56 57 56 57 57 55 53 54 52 50 48 48 46 46 46 43 44 46 43 39 46 54 54 57 75 66 55 53 52 55 54 51 52 47 49 52 61 80
40 49 53 51 51 56 58 58 57 56 56 56 55 53 50 49 49 50 50 49 49 42 45 45 42 43 53 56 54 68 57 57 60 54 56 53 50 50 50 52 55 68 81
47 50 50 47 48 52 55 55 56 56 55 55 57 55 52 52 50 51 53 53 46 48 44 48 38 41 45 55 52 51 61 63 61 59 63 64 59 56 56 53 61 60 74
47 47 49 50 51 51 52 53 55 61 60 55 56 57 54 52 50 52 52 52 47 46 47 47 37 37 41 47 59 75 72 68 64 66 62 61 58 54 53 53 56 62 72
55 53 56 56 54 53 55 57 60 63 63 62 59 57 57 55 53 53 51 49 46 45 46 44 34 36 40 46 67 66 71 67 61 58 55 55 50 50 50 48 49 54 74
53 54 56 58 57 56 56 62 64 67 63 60 60 59 56 55 50 51 51 49 42 42 44 42 34 33 40 46 53 58 62 62 57 54 52 51 46 42 39 37 32 48 70
56 56 56 60 62 60 57 58 63 65 63 61 59 59 57 54 48 44 46 45 42 41 43 34 33 34 38 44 51 54 56 58 59 59 55 48 38 32 33 32 32 48 62
47 51 54 57 59 61 59 58 61 66 63 59 56 55 53 49 44 37 39 45 43 40 38 31 27 34 38 42 46 46 50 56 62 59 51 46 39 40 39 42 48 57 65
50 54 57 59 59 59 59 59 59 62 58 57 56 52 47 41 36 36 32 31 38 34 24 23 18 29 33 41 45 46 48 52 57 60 59 54 52 53 57 61 63 63 66
Wind_Direction_850mb
294 297 305 297 294 289 241 231 221 223 223 227 227 227 231 227 237 240 244 241 238 239 231 233 236 232 231 234 235 233 228 224 224 223 221 228 234 225 223 221 220 223 225
288 302 309 291 295 285 243 219 226 225 224 222 221 225 226 229 234 240 245 247 244 240 232 233 238 237 233 233 231 233 225 221 224 216 221 213 220 220 226 224 219 221 220
291 302 298 283 294 243 221 207 207 208 214 213 218 221 222 226 231 235 239 242 245 243 240 241 240 243 242 239 234 228 231 221 221 223 215 181 204 222 226 226 222 222 222
303 304 285 258 183 165 158 163 170 174 177 186 200 211 222 229 234 241 247 249 248 246 243 245 242 244 247 244 237 229 232 225 226 217 221 226 218 195 203 227 221 222 224
289 284 267 227 176 166 166 167 163 167 175 187 196 211 230 236 239 241 243 246 249 248 245 243 245 244 243 244 238 233 231 228 230 231 227 224 223 227 217 206 216 221 222
295 289 243 205 174 169 170 169 167 160 166 178 185 195 217 234 240 242 243 247 248 249 242 239 243 243 242 244 243 237 235 233 229 233 235 235 227 219 218 220 222 216 220
296 271 237 184 171 162 157 158 153 140 148 157 154 161 223 259 267 258 247 247 250 250 242 240 239 240 243 247 246 242 237 236 230 239 236 239 242 235 230 225 220 206 214
322 252 230 196 167 157 140 139 146 138 146 147 170 333 274 284 291 270 258 252 248 243 246 244 245 241 247 249 246 243 242 240 235 242 238 241 245 244 237 225 214 198 205
8 271 203 177 151 135 124 120 106 119 108 84 77 86 36 343 287 274 270 266 262 250 244 249 252 247 249 246 245 242 242 238 245 239 241 242 246 249 243 229 218 211 198
1 48 110 137 132 127 120 111 102 98 89 95 88 64 30 0 340 287 264 267 267 263 255 248 244 245 245 246 241 240 238 240 245 240 240 245 245 248 250 246 228 221 215
357 23 87 107 104 104 105 100 94 96 90 43 49 35 13 345 332 293 267 265 272 273 267 252 249 250 244 241 237 236 242 245 244 239 240 244 245 251 250 250 233 227 216
347 22 72 90 94 83 83 87 92 57 27 8 5 11 2 339 320 316 312 284 270 268 274 257 259 251 234 241 238 235 238 239 234 239 239 245 247 251 253 254 236 228 205
22 41 43 69 64 59 51 51 50 30 22 355 359 358 343 331 324 322 307 307 279 271 271 273 259 264 238 234 237 239 239 238 239 241 242 247 249 251 248 248 256 230 219
17 26 22 27 29 30 25 24 19 2 353 350 349 348 337 329 322 314 312 296 298 276 260 264 264 260 253 235 234 240 242 242 244 244 246 248 249 251 255 257 242 223 208
21 21 9 12 12 6 7 10 4 356 349 344 342 342 337 324 316 310 304 303 291 296 269 259 259 260 253 240 236 237 241 248 240 241 245 246 248 252 249 252 255 214 214
14 8 8 2 2 359 357 354 352 349 344 337 337 338 330 322 315 309 305 300 297 293 285 265 254 261 253 250 241 236 239 243 241 244 249 245 246 248 245 241 244 229 213
14 10 5 352 348 346 346 344 343 340 335 335 337 336 333 327 318 317 313 310 304 293 300 275 256 257 256 250 256 238 231 232 241 246 249 247 249 249 249 241 240 233 230
359 355 349 342 339 337 337 338 339 337 335 336 335 334 330 327 320 320 320 314 306 302 299 287 279 256 255 265 255 236 229 232 239 241 244 252 247 251 250 250 242 245 251
350 346 340 341 336 337 341 343 342 339 337 336 334 331 329 329 325 321 322 322 314 308 300 295 286 260 250 259 250 242 229 236 239 238 240 246 248 245 248 248 249 244 235
347 347 349 346 344 344 343 343 341 340 338 337 334 332 333 331 325 319 321 321 318 311 311 295 289 274 250 247 230 236 233 231 236 243 246 249 249 248 253 256 249 255 246
350 349 354 356 355 350 346 346 346 345 342 339 335 335 334 330 326 317 314 314 314 312 310 300 292 278 264 247 230 224 232 234 241 245 248 247 246 248 256 258 253 253 247
354 353 353 358 357 356 352 351 352 347 343 341 340 337 333 330 325 317 311 309 309 310 307 300 293 281 278 243 231 221 225 232 239 240 240 238 248 254 258 259 252 245 237
354 354 354 355 359 358 356 352 351 348 346 344 342 339 334 331 327 321 314 311 313 306 300 302 294 280 277 253 228 236 230 224 226 226 229 237 239 242 244 239 232 231 218
356 354 353 354 354 355 356 354 352 350 350 347 344 340 337 331 328 324 320 314 317 306 296 300 297 286 276 260 240 223 220 218 216 221 224 225 218 221 223 214 210 207 198
351 354 352 352 351 352 352 353 353 354 354 349 346 343 339 335 329 326 325 322 324 314 301 289 285 283 274 259 245 230 211 208 214 214 207 198 192 184 180 177 178 181 182
347 350 353 352 353 352 351 351 354 354 351 348 347 344 338 334 334 332 331 325 328 326 304 266 280 284 275 260 246 234 221 206 197 190 191 185 180 176 172 170 170 171 171